Weather History for Tallahassee, FL

Change the Weather History Date:

Monday, June 17, 2013

  Actual Average Record
Temperature  
Mean Temperature 83 °F 81 °F  
Max Temperature 93 °F 91 °F 101 °F (1998)
Min Temperature 73 °F 70 °F 59 °F (1988)
Degree Days  
Heating Degree Days 0    
Month to date heating degree days  
Since 1 June heating degree days  
Since 1 July heating degree days  
Cooling Degree Days 18    
Month to date cooling degree days  
Year to date cooling degree days  
Since 1 June cooling degree days  
Growing Degree Days 33 (Base 50)    
Moisture  
Dew Point 70 °F    
Average Humidity 70    
Maximum Humidity 94    
Minimum Humidity 31    
Precipitation  
Precipitation 0.00 in 0.28 in 5.58 in (1982)
Month to date precipitation 3.09 4.16  
Year to date precipitation 25.48 25.82  
Sea Level Pressure  
Sea Level Pressure 30.03 in    
Wind  
Wind Speed 3 mph (South)    
Max Wind Speed 13 mph    
Max Gust Speed -    
Visibility 8 miles    
Events Fog    
T = Trace of Precipitation, MM = Missing Value Source: NWS Daily Summary

Daily Weather History Graph

Daily Weather History Graph

Search for Another Location

Airport:

Trip Planner

Search our weather history database for the weather conditions in past years. The results will help you decide how hot, cold, wet, or windy it might be!

Date:

Astronomy

Jun. 17, 2013 Rise Set
Actual Time 6:35 AM EDT 8:41 PM EDT
Civil Twilight 6:07 AM EDT 9:09 PM EDT
Nautical Twilight 5:34 AM EDT 9:42 PM EDT
Astronomical Twilight 4:57 AM EDT 10:18 PM EDT
Moon 2:39 PM EDT (6/17) 1:47 AM EDT (6/17)
Length of Visible Light 15h 01m
Length of Day
14h 06m
First Quarter, 60% of the Moon is Illuminated
Jun 17
First Quarter
Jun 23
Full
Jun 30
Last Quarter
Jul 8
New
Jul 15
First Quarter

Hourly Weather History & Observations

Time (EDT) Temp. Heat Index Dew Point Humidity Pressure Visibility Wind Dir Wind Speed Gust Speed Precip Events Conditions
12:53 AM 77.0 °F - 72.0 °F 84% 30.06 in 10.0 mi Calm Calm - N/A   Scattered Clouds
1:53 AM 75.9 °F - 72.0 °F 87% 30.04 in 10.0 mi Calm Calm - N/A   Clear
2:53 AM 75.0 °F - 71.1 °F 87% 30.04 in 9.0 mi East 3.5 mph - N/A   Clear
3:53 AM 75.9 °F - 72.0 °F 87% 30.04 in 9.0 mi Calm Calm - N/A   Mostly Cloudy
4:53 AM 75.0 °F - 71.1 °F 87% 30.04 in 10.0 mi ESE 4.6 mph - N/A   Clear
5:53 AM 73.9 °F - 70.0 °F 87% 30.04 in 7.0 mi Calm Calm - N/A Fog Patches of Fog
6:53 AM 73.0 °F - 70.0 °F 90% 30.05 in 4.0 mi SSE 3.5 mph - N/A   Mostly Cloudy
6:56 AM 73.4 °F - 69.8 °F 88% 30.05 in 1.8 mi SE 3.5 mph - N/A   Mostly Cloudy
7:05 AM 73.4 °F - 71.6 °F 94% 30.05 in 0.2 mi Calm Calm - N/A Fog Fog
7:17 AM 73.4 °F - 71.6 °F 94% 30.05 in 1.0 mi Calm Calm - N/A   Mist
7:25 AM 73.4 °F - 71.6 °F 94% 30.05 in 3.0 mi Calm Calm - N/A   Mostly Cloudy
7:33 AM 73.4 °F - 71.6 °F 94% 30.05 in 4.0 mi Calm Calm - N/A   Scattered Clouds
7:53 AM 75.0 °F - 72.0 °F 90% 30.06 in 6.0 mi Calm Calm - N/A   Clear
8:53 AM 79.0 °F - 73.9 °F 84% 30.07 in 10.0 mi Calm Calm - N/A   Partly Cloudy
9:53 AM 84.0 °F 89.6 °F 72.0 °F 67% 30.06 in 10.0 mi Variable 3.5 mph - N/A   Partly Cloudy
10:53 AM 87.1 °F 90.6 °F 68.0 °F 53% 30.05 in 10.0 mi South 10.4 mph - N/A   Partly Cloudy
11:10 AM 86.0 °F 91.8 °F 71.6 °F 62% 30.07 in 10.0 mi South 8.1 mph - N/A   Scattered Clouds
11:53 AM 89.1 °F 91.3 °F 66.0 °F 46% 30.04 in 10.0 mi SW 9.2 mph - N/A   Scattered Clouds
12:53 PM 89.1 °F 91.0 °F 64.9 °F 45% 30.03 in 10.0 mi Variable 4.6 mph - N/A   Scattered Clouds
1:53 PM 91.0 °F 92.6 °F 64.0 °F 41% 30.02 in 10.0 mi SW 8.1 mph - N/A   Mostly Cloudy
2:53 PM 93.0 °F 95.9 °F 66.0 °F 41% 30.01 in 10.0 mi SSE 12.7 mph - N/A   Mostly Cloudy
3:53 PM 91.0 °F 92.6 °F 64.0 °F 41% 29.99 in 10.0 mi SSW 8.1 mph - N/A   Mostly Cloudy
4:53 PM 91.9 °F 95.9 °F 68.0 °F 45% 29.97 in 10.0 mi SE 9.2 mph - N/A   Mostly Cloudy
5:53 PM 90.0 °F 93.6 °F 68.0 °F 48% 29.96 in 10.0 mi SSE 11.5 mph - N/A   Mostly Cloudy
6:53 PM 88.0 °F 92.9 °F 70.0 °F 55% 29.98 in 10.0 mi SSW 9.2 mph - N/A   Mostly Cloudy
7:53 PM 86.0 °F 90.7 °F 70.0 °F 59% 29.99 in 10.0 mi SSW 9.2 mph - N/A   Clear
8:53 PM 84.0 °F 88.4 °F 70.0 °F 63% 30.00 in 10.0 mi SSW 3.5 mph - N/A   Mostly Cloudy
9:53 PM 82.0 °F 85.5 °F 69.1 °F 65% 30.01 in 10.0 mi SW 4.6 mph - N/A   Partly Cloudy
10:53 PM 81.0 °F 83.8 °F 68.0 °F 65% 30.04 in 10.0 mi WSW 4.6 mph - N/A   Partly Cloudy
11:53 PM 78.1 °F - 68.0 °F 71% 30.02 in 10.0 mi South 3.5 mph - N/A   Clear